{"data":{"norad_id":52116,"intl_designator":"2022-029AE","name":"STARLINK-3735","alt_names":[],"object_type":"PAYLOAD","status":"ACTIVE","operator":null,"country":"US","launch_date":"2022-03-19","launch_site_code":"AFETR","launch_vehicle":null,"mission":null,"orbit_class":"UNKNOWN","rcs_meters":null,"size_class":null,"mass_kg":null,"dimensions":null,"purposes":["comms"],"wikipedia_slug":null,"has_3d_model":false,"image_url":null,"decayed_at":null,"tle_current":{"epoch":"2026-09-20T01:12:48.097152Z","epoch_age_seconds":94977,"freshness":"FRESH","line1":"1 52116U 22029AE  26263.05055668  .00001443  00000+0  53852-4 0  9992","line2":"2 52116  53.1588 271.4749 0001155 112.6323 247.4802 15.34384164250330","mean_motion":15.34384164,"eccentricity":0.0001155,"inclination_deg":53.1588,"raan_deg":271.4749,"arg_perigee_deg":112.6323,"mean_anomaly_deg":247.4802,"bstar":5.3852e-5,"rev_number":25033,"period_min":93.848726660868,"perigee_km":461.96018605707,"apogee_km":463.54043102534,"semimajor_km":6840.8873085412,"source":"CELESTRAK","updated_at":"2026-09-20T09:00:39.988659Z"}}}